Location: Mana�l
(15.0115°N, 12.5022°W)
Time: 04:50:43
(UTC+00:00)

Atlas Centaur 2 - Pass Details

Date: 07 June 2020
Orbit: 459 x 1310 km, 30.4° (Epoch: 05 July)

Event Time Altitude Azimuth Distance (km) Brightness Sun altitude
Exits shadow 03:51:08 15° 134° (SE) 2,129 4.3 -31.6°
Drops below altitude 10° 03:53:10 10° 113° (ESE) 2,383 4.8 -31.2°
Sets 03:56:17 0° 92° (E) 3,139 5.8 -30.6°
